Weather History for KLSE - June, 2012

Change the Weather History Date:

Wednesday, June 20, 2012

  Actual Average Record
Temperature  
Mean Temperature 79 °F 71 °F  
Max Temperature 92 °F 82 °F 102 °F (1933)
Min Temperature 65 °F 60 °F 42 °F (1992)
Degree Days  
Heating Degree Days 0 1  
Month to date heating degree days 17 34  
Since 1 June heating degree days 17  
Since 1 July heating degree days 5783 7191  
Cooling Degree Days 14 7  
Month to date cooling degree days 159 90  
Year to date cooling degree days 267 138  
Since 1 June cooling degree days 159  
Growing Degree Days 30 (Base 50)    
Moisture  
Dew Point 68 °F    
Average Humidity 69    
Maximum Humidity 90    
Minimum Humidity 47    
Precipitation  
Precipitation 1.20 in 0.15 in 1.93 in (1890)
Month to date precipitation 3.24 2.87  
Year to date precipitation 14.78 13.94  
Snow  
Snow 0.00 in 0.00 in 0.00 in (2002)
Month to date snowfall 0.0 0.0  
Since 1 June snowfall 0.0  
Since 1 July snowfall 21.5 43.3  
Snow Depth 0.00 in    
Sea Level Pressure  
Sea Level Pressure 29.78 in    
Wind  
Wind Speed 13 mph (West)    
Max Wind Speed 35 mph    
Max Gust Speed 44 mph    
Visibility 8 miles    
Events Rain , Thunderstorm    
T = Trace of Precipitation, MM = Missing Value Source: NWS Daily Summary

Daily Weather History Graph

Daily Weather History Graph

Search for Another Location

Airport or City:

Trip Planner

Search our weather history database for the weather conditions in past years. The results will help you decide how hot, cold, wet, or windy it might be!

Date:

Astronomy

Jun. 20, 2012 Rise Set
Actual Time 5:22 AM CDT 8:50 PM CDT
Civil Twilight 4:46 AM CDT 9:27 PM CDT
Nautical Twilight 3:58 AM CDT 10:14 PM CDT
Astronomical Twilight 2:58 AM CDT 11:15 PM CDT
Moon 6:24 AM CDT (6/20) 9:33 PM CDT (6/20)
Length of Visible Light 16h 40m
Length of Day
15h 28m
New Moon, 1% of the Moon is Illuminated
Jun 20
New Moon
Jun 26
First Quarter
Jul 3
Full
Jul 10
Last Quarter
Jul 18
New

Hourly Weather History & Observations

Time (CDT) Temp. Heat Index Dew Point Humidity Pressure Visibility Wind Dir Wind Speed Gust Speed Precip Events Conditions
12:53 AM 82.0 °F 84.9 °F 68.0 °F 62% 29.73 in 10.0 mi South 17.3 mph 24.2 mph N/A   Clear
1:53 AM 81.0 °F 83.8 °F 68.0 °F 65% 29.73 in 10.0 mi South 12.7 mph 20.7 mph N/A   Clear
2:53 AM 80.1 °F 82.7 °F 68.0 °F 67% 29.73 in 10.0 mi South 12.7 mph - N/A   Clear
3:53 AM 78.1 °F - 68.0 °F 71% 29.74 in 10.0 mi South 11.5 mph - N/A   Clear
4:53 AM 78.1 °F - 68.0 °F 71% 29.76 in 10.0 mi South 13.8 mph - N/A   Clear
5:53 AM 78.1 °F - 68.0 °F 71% 29.77 in 10.0 mi South 11.5 mph - N/A   Scattered Clouds
6:53 AM 78.1 °F - 68.0 °F 71% 29.78 in 10.0 mi South 15.0 mph - N/A   Overcast
7:53 AM 80.1 °F 82.9 °F 69.1 °F 69% 29.78 in 10.0 mi South 12.7 mph 20.7 mph N/A   Partly Cloudy
8:53 AM 82.0 °F 85.9 °F 70.0 °F 67% 29.79 in 10.0 mi South 13.8 mph - N/A   Partly Cloudy
9:53 AM 84.0 °F 88.4 °F 70.0 °F 63% 29.79 in 10.0 mi South 10.4 mph 21.9 mph N/A   Mostly Cloudy
10:53 AM 86.0 °F 90.7 °F 70.0 °F 59% 29.77 in 10.0 mi South 18.4 mph 24.2 mph N/A   Partly Cloudy
11:53 AM 87.8 °F 92.6 °F 69.8 °F 55% 29.80 in 10.0 mi South 16.1 mph - N/A   Scattered Clouds
12:53 PM 88.0 °F 92.9 °F 70.0 °F 55% 29.75 in 10.0 mi SSW 13.8 mph 21.9 mph N/A   Mostly Cloudy
1:53 PM 90.0 °F 94.5 °F 69.1 °F 50% 29.73 in 10.0 mi South 19.6 mph 25.3 mph N/A   Mostly Cloudy
2:53 PM 91.0 °F 95.6 °F 69.1 °F 48% 29.71 in 10.0 mi SSW 23.0 mph 29.9 mph N/A   Mostly Cloudy
3:53 PM 91.9 °F 97.4 °F 70.0 °F 48% 29.69 in 10.0 mi South 19.6 mph 26.5 mph N/A   Scattered Clouds
4:53 PM 91.0 °F 95.2 °F 68.0 °F 47% 29.66 in 10.0 mi SSW 18.4 mph 34.5 mph N/A   Mostly Cloudy
5:53 PM 90.0 °F 94.5 °F 69.1 °F 50% 29.67 in 10.0 mi SSW 15.0 mph 25.3 mph N/A   Scattered Clouds
6:53 PM 87.1 °F 90.6 °F 68.0 °F 53% 29.66 in 10.0 mi SSW 10.4 mph 20.7 mph N/A   Mostly Cloudy
7:20 PM 71.6 °F - 68.0 °F 88% 29.73 in 2.0 mi NW 34.5 mph 43.7 mph 0.01 in Rain , Thunderstorm Thunderstorms and Rain
7:22 PM 71.6 °F - 68.0 °F 88% 29.73 in 1.2 mi NW 29.9 mph 43.7 mph 0.02 in Rain , Thunderstorm Heavy Thunderstorms and Rain
7:26 PM 69.8 °F - 68.0 °F 94% 29.76 in 0.8 mi NW 21.9 mph 43.7 mph 0.09 in Rain , Thunderstorm Heavy Thunderstorms and Rain
7:32 PM 69.8 °F - 68.0 °F 94% 29.76 in 2.0 mi NW 20.7 mph 39.1 mph 0.11 in Rain , Thunderstorm Light Thunderstorms and Rain
7:53 PM 69.1 °F - 68.0 °F 96% 29.78 in 2.0 mi NNW 15.0 mph - 0.36 in Rain , Thunderstorm Heavy Rain
8:06 PM 69.8 °F - 68.0 °F 94% 29.81 in 1.0 mi NNW 10.4 mph 20.7 mph 0.26 in Rain , Thunderstorm Heavy Rain
8:13 PM 68.0 °F - 68.0 °F 100% 29.80 in 1.2 mi North 11.5 mph - 0.38 in Rain , Thunderstorm Heavy Rain
8:25 PM 68.0 °F - 66.2 °F 94% 29.80 in 3.0 mi NNW 16.1 mph - 0.53 in Rain , Thunderstorm Thunderstorms and Rain
8:33 PM 68.0 °F - 66.2 °F 94% 29.80 in 7.0 mi NNW 11.5 mph - 0.54 in Rain , Thunderstorm Light Thunderstorms and Rain
8:53 PM 69.1 °F - 66.9 °F 93% 29.80 in 10.0 mi NNW 4.6 mph - 0.54 in Rain , Thunderstorm Light Rain
9:10 PM 69.8 °F - 66.2 °F 88% 29.86 in 9.0 mi NW 8.1 mph - 0.00 in Rain , Thunderstorm Light Rain
9:22 PM 69.8 °F - 68.0 °F 94% 29.86 in 2.5 mi NW 10.4 mph - 0.07 in Rain , Thunderstorm Heavy Rain
9:32 PM 68.0 °F - 68.0 °F 100% 29.83 in 5.0 mi North 10.4 mph - 0.10 in Rain , Thunderstorm Light Rain
9:50 PM 68.0 °F - 66.2 °F 94% 29.82 in 10.0 mi North 5.8 mph - 0.10 in Rain Light Rain
9:53 PM 68.0 °F - 66.9 °F 96% 29.80 in 10.0 mi NNE 4.6 mph - 0.11 in Rain Light Rain
10:03 PM 68.0 °F - 66.2 °F 94% 29.83 in 9.0 mi NW 8.1 mph - 0.00 in Rain , Thunderstorm Light Rain
10:13 PM 68.0 °F - 66.2 °F 94% 29.85 in 10.0 mi NW 10.4 mph - 0.01 in Rain Light Rain
10:23 PM 69.8 °F - 66.2 °F 88% 29.87 in 10.0 mi NW 13.8 mph 18.4 mph 0.01 in Rain Light Rain
10:40 PM 68.0 °F - 64.4 °F 88% 29.88 in 8.0 mi NW 18.4 mph 23.0 mph 0.01 in Rain Rain
10:53 PM 68.0 °F - 64.9 °F 90% 29.85 in 5.0 mi NW 15.0 mph 19.6 mph 0.05 in Rain Light Rain
11:53 PM 66.0 °F - 62.1 °F 87% 29.81 in 10.0 mi North 4.6 mph - 0.07 in Rain Light Rain